Location: Antioch Baptist Church
(32.6696°N, 85.7327°W)
Time: 12:16:00
(UTC+00:00)

SL-16 R/B - Pass Details

Date: 14 July 2020
Orbit: 839 x 850 km, 71.0° (Epoch: 08 August)

Event Time Altitude Azimuth Distance (km) Brightness Sun altitude
Exits shadow 03:51:41 24° 241° (WSW) 1,659 3.7 -28.9°
Maximum altitude 03:54:31 41° 295° (WNW) 1,201 3.3 -29.2°
Drops below altitude 10° 03:59:52 10° 5° (N) 2,474 5.3 -29.8°
Sets 04:02:28 0° 13° (NNE) 3,414 6.0 -30.1°
